Flag for Germany Weather past 2 weeks in Neuss, North Rhine-Westphalia, Germany

Now
55 °F

Clear.


Feels Like: 55 °F
Forecast: 53 / 70 °F
Wind: 5 mph from Southeast

Location: Duesseldorf

Current Time: Oct 2, 2014 at 12:49:40 AM

Latest Report: Oct 2, 2014 at 12:20 AM


Visibility: 10 mi

Pressure: 30.36 "Hg

Humidity: 94%

Dew point: 54 °F

Location of NeussLocation

Historic Weather in Neuss — Graph

°F

Neuss temperature yesterday

Maximum temperature yesterday: 70 °F (at 2:50 PM)
Minimum temperature yesterday: 54 °F (at 12:50 AM)
Average temperature yesterday: 62 °F

Past Weeks' High & Low Weather Summary

 TemperatureHumidityPressure
High77 °F (Sep 17, 2:20 PM)100% (Sep 18, 11:20 PM)30.39 "Hg (Sep 18, 11:20 PM)
Low45 °F (Sep 23, 4:20 AM)45% (Sep 23, 5:20 PM)29.83 "Hg (Sep 18, 4:50 AM)
Average61 °F80%30.09 "Hg
* Reported Sep 16 11:20 PM — Oct 1 11:20 PM, Neuss, Weather by CustomWeather, © 2014

Note: Actual official high and low records may vary slightly from our data, if they occured in-between our weather recording intervals... More about our weather records

Advertising

Neuss weather history for previous 24 hours

 ConditionsComfort  
Time TempWeatherWind HumidityBarometerVisibility
11:20 PM
Oct 1
57 °FClear.3 mph88%30.33 "Hg10 mi
10:50 PM57 °FClear.3 mph94%30.33 "Hg10 mi
10:20 PM57 °FClear.5 mph94%30.33 "Hg10 mi
9:50 PM59 °FClear.2 mph94%30.33 "Hg10 mi
9:20 PM59 °FClear.3 mph88%30.33 "Hg10 mi
8:50 PM59 °FClear.2 mph82%30.33 "Hg10 mi
8:20 PM61 °FClear.No wind83%30.33 "Hg10 mi
7:50 PM63 °FSunny.1 mph77%30.33 "Hg10 mi
7:20 PM64 °FSunny.1 mph73%30.33 "Hg10 mi
6:50 PM68 °FPassing clouds.3 mph64%30.30 "HgN/A
6:20 PM70 °FPassing clouds.3 mph60%30.30 "HgN/A
5:50 PM70 °FPassing clouds.2 mph60%30.30 "HgN/A
5:20 PM70 °FScattered clouds.3 mph60%30.30 "HgN/A
4:50 PM70 °FPartly sunny.1 mph60%30.30 "HgN/A
4:20 PM70 °FScattered clouds.5 mph60%30.30 "HgN/A
3:50 PM70 °FPartly sunny.3 mph64%30.30 "HgN/A
3:20 PM70 °FScattered clouds.5 mph60%30.30 "HgN/A
2:50 PM70 °FScattered clouds.7 mph60%30.30 "HgN/A
2:20 PM68 °FPassing clouds.9 mph64%30.30 "HgN/A
1:50 PM68 °FPassing clouds.7 mph64%30.33 "HgN/A
1:20 PM66 °FPassing clouds.8 mph68%30.33 "HgN/A
12:50 PM66 °FPassing clouds.7 mph73%30.33 "HgN/A
12:20 PM66 °FPassing clouds.7 mph68%30.33 "HgN/A
11:50 AM64 °FPassing clouds.5 mph78%30.33 "HgN/A
11:20 AM64 °FScattered clouds.6 mph78%30.33 "Hg5 mi
10:50 AM63 °FPartly sunny.6 mph88%30.33 "Hg4 mi
10:20 AM61 °FPartly sunny.6 mph94%30.33 "Hg4 mi
9:50 AM61 °FScattered clouds.6 mph88%30.30 "Hg4 mi
9:20 AM59 °FFog.5 mph94%30.30 "Hg3 mi
8:50 AM57 °FFog.7 mph100%30.30 "Hg3 mi
8:20 AM57 °FFog.6 mph94%30.30 "Hg2 mi
7:50 AM57 °FFog.8 mph94%30.30 "Hg2 mi
7:20 AM57 °FFog.7 mph94%30.27 "Hg2 mi
6:50 AM57 °FFog.6 mph94%30.30 "Hg3 mi
6:20 AM57 °FPartly cloudy.2 mph100%30.27 "Hg4 mi
5:50 AM59 °FLight rain. Partly cloudy.6 mph94%30.27 "Hg5 mi
5:20 AM59 °FPartly cloudy.7 mph94%30.30 "Hg5 mi
4:50 AM59 °FPartly cloudy.3 mph94%30.30 "Hg6 mi
4:20 AM59 °FLight rain. Partly cloudy.5 mph94%30.30 "Hg6 mi
3:50 AM59 °FLight rain. Partly cloudy.3 mph94%30.30 "Hg6 mi
3:20 AM59 °FLight rain. Partly cloudy.1 mph94%30.30 "HgN/A
2:50 AM59 °FLight rain. Partly cloudy.6 mph94%30.30 "HgN/A
2:20 AM57 °FPassing clouds.2 mph94%30.30 "HgN/A
1:50 AM54 °FFog.2 mph94%30.30 "HgN/A
1:20 AM54 °FFog.2 mph100%30.30 "HgN/A
12:50 AM54 °FFog.3 mph94%30.27 "HgN/A
12:20 AM55 °FFog.2 mph94%30.27 "HgN/A
Weather by CustomWeather, © 2014

See weather overviewHow to use our weather pages